Flight Track Log - Related Links

Times and Time Zones

All times are in EDT time to prevent confusion due to time zone crossing. See the N42591 flight status page for this flight to view local times or setup timezone preferences in your user account.

Time Position Orientation Groundspeed Altitude Reporting Facility
EDT Latitude Longitude Course Direction KTS MPH feet Rate Location/Type
02:06PM 38.1469 -87.6628 142° Southeast 78 90 1,800  Level Indianapolis Center
02:07PM 38.1225 -87.6553 166° South 85 98 2,100 387 Climbing Indianapolis Center
02:08PM 38.1003 -87.6511 172° South 85 98 2,600 537 Climbing Indianapolis Center
02:09PM 38.0742 -87.6431 166° South 85 98 3,200 390 Climbing Indianapolis Center
02:10PM 37.8089 -87.4703 174° South  Level FlightAware Approximate
02:10PM 38.0533 -87.6350 163° South 84 97 3,400  Level Indianapolis Center
02:11PM 37.7738 -87.4571 142° Southeast  Level FlightAware Approximate
02:11PM 38.0333 -87.6206 150° Southeast 98 113 3,500  Level Indianapolis Center
02:12PM 38.0042 -87.6214 181° South 99 114 3,500 49 Level Indianapolis Center
02:13PM 37.9744 -87.6144 170° South 103 119 3,600 194 Climbing Indianapolis Center
02:14PM 37.9486 -87.6172 185° South 102 117 3,900 341 Climbing Indianapolis Center
02:15PM 37.9256 -87.6119 170° South 92 106 4,300 390 Climbing Indianapolis Center
02:16PM 37.9044 -87.6083 172° South 82 94 4,700 435 Climbing Indianapolis Center
02:17PM 37.8808 -87.6044 173° South 77 89 5,200 439 Climbing Indianapolis Center
02:18PM 37.8617 -87.6072 187° South 73 84 5,600 390 Climbing Indianapolis Center
02:19PM 37.8442 -87.6164 202° Southwest 71 82 6,000 339 Climbing Indianapolis Center
02:20PM 37.8281 -87.6256 204° Southwest 68 78 6,300 339 Climbing Indianapolis Center
02:21PM 37.8114 -87.6342 202° Southwest 67 77 6,700 341 Climbing Indianapolis Center
02:22PM 37.7944 -87.6367 187° South 65 75 7,000 293 Climbing Indianapolis Center
02:23PM 37.7772 -87.6400 189° South 64 74 7,300 290 Climbing Indianapolis Center
02:24PM 37.7586 -87.6428 187° South 64 74 7,600 290 Climbing Indianapolis Center
02:25PM 37.7408 -87.6486 195° South 64 74 7,900 290 Climbing Indianapolis Center
02:26PM 37.7169 -87.6478 178° South 66 76 8,200 341 Climbing Indianapolis Center
02:27PM 37.6972 -87.6456 175° South 68 78 8,600 341 Climbing Indianapolis Center
02:28PM 37.6769 -87.6514 193° South 70 81 8,900 387 Climbing Indianapolis Center
02:29PM 37.6553 -87.6531 183° South 72 83 9,400 290 Climbing Indianapolis Center
02:30PM 37.6322 -87.6522 178° South 78 90 9,500 146 Climbing Indianapolis Center
02:31PM 37.6031 -87.6569 187° South 98 113 9,700 49 Climbing Indianapolis Center
02:33PM 37.5700 -87.6594 183° South 114 131 9,600 -48 Descending Indianapolis Center
02:34PM 37.5383 -87.6567 176° South 114 131 9,600  Level Indianapolis Center
02:35PM 37.4983 -87.6586 182° South 115 132 9,600 -49 Level Indianapolis Center
02:36PM 37.4653 -87.6553 175° South 116 133 9,500 -97 Descending Indianapolis Center
02:37PM 37.4314 -87.6528 177° South 118 136 9,400 -49 Descending Indianapolis Center
02:38PM 37.3978 -87.6517 178° South 119 137 9,400 54 Level Indianapolis Center
02:38PM 37.3708 -87.6528 182° South 120 138 9,500 54 Climbing Memphis Center
02:40PM 37.3378 -87.6606 191° South 119 137 9,500  Level Memphis Center
02:41PM 37.3056 -87.6600 179° South 118 136 9,500  Level Memphis Center
02:41PM 37.2897 -87.6619 186° South 121 139 9,500 97 Level Memphis Center
02:42PM 37.2722 -87.6622 181° South 118 136 9,600  Climbing Memphis Center
02:42PM 37.2561 -87.6611 177° South 115 132 9,500 -97 Descending Memphis Center
02:43PM 37.2406 -87.6583 172° South 115 132 9,500  Level Memphis Center
02:43PM 37.2231 -87.6575 178° South 121 139 9,500  Level Memphis Center
02:44PM 37.2017 -87.6547 174° South 116 133 9,500  Level Memphis Center
02:44PM 37.1917 -87.6492 156° South 114 131 9,500  Level Memphis Center
02:45PM 37.1714 -87.6433 167° South 116 133 9,500  Level Memphis Center
02:45PM 37.1606 -87.6378 158° South 114 131 9,500  Level Memphis Center
02:46PM 37.1436 -87.6214 142° Southeast 116 133 9,500  Level Memphis Center
02:46PM 37.1381 -87.6114 125° Southeast 115 132 9,500  Level Memphis Center
02:47PM 37.1236 -87.5900 130° Southeast 115 132 9,500  Level Memphis Center
02:47PM 37.1133 -87.5847 158° South 117 135 9,500  Level Memphis Center
02:48PM 37.0919 -87.5728 156° South 117 135 9,500  Level Memphis Center
02:48PM 37.0825 -87.5708 171° South 122 140 9,500  Level Memphis Center
02:49PM 37.0564 -87.5711 180° South 122 140 9,500  Level Memphis Center
02:49PM 37.0428 -87.5700 176° South 126 145 9,500  Level Memphis Center
02:50PM 37.0228 -87.5636 166° South 122 140 9,500  Level Memphis Center
02:50PM 37.0094 -87.5589 164° South 122 140 9,500  Level Memphis Center
02:51PM 36.9894 -87.5536 168° South 122 140 9,500  Level Memphis Center
02:51PM 36.9761 -87.5528 177° South 123 142 9,500  Level Memphis Center
02:52PM 36.9544 -87.5483 171° South 122 140 9,500  Level Memphis Center
02:52PM 36.9389 -87.5469 176° South 127 146 9,500  Level Memphis Center
02:53PM 36.9136 -87.5439 174° South 125 144 9,500  Level Memphis Center
02:53PM 36.9075 -87.5408 158° South 124 143 9,500  Level Memphis Center
02:54PM 36.8794 -87.5372 174° South 124 143 9,500  Level Memphis Center
02:54PM 36.8722 -87.5350 166° South 122 140 9,500  Level Memphis Center
02:55PM 36.8453 -87.5242 162° South 125 144 9,500  Level Memphis Center
02:56PM 36.8114 -87.5061 157° South 127 146 9,500  Level Memphis Center
02:57PM 36.7747 -87.4833 154° Southeast 132 152 9,500  Level Memphis Center
02:58PM 36.7464 -87.4631 150° Southeast 129 148 9,500  Level Memphis Center
02:59PM 36.7150 -87.4381 147° Southeast 129 148 9,500 48 Level Memphis Center
03:00PM 36.6828 -87.4169 152° Southeast 129 148 9,600 48 Climbing Memphis Center
03:01PM 36.6522 -87.3908 146° Southeast 130 150 9,600 -48 Level Memphis Center
03:02PM 36.6175 -87.3619 146° Southeast 130 150 9,500 -49 Descending Memphis Center
03:03PM 36.5858 -87.3422 153° Southeast 129 148 9,500 -49 Level Memphis Center
03:04PM 36.5531 -87.3225 154° Southeast 129 148 9,400 -48 Descending Memphis Center
03:05PM 36.5225 -87.3044 155° Southeast 125 144 9,400 48 Level Memphis Center
03:06PM 36.4933 -87.2839 150° Southeast 124 143 9,500  Climbing Memphis Center
03:07PM 36.4631 -87.2739 165° South 115 132 9,400  Descending Memphis Center
03:08PM 36.4342 -87.2633 164° South 112 129 9,500 48 Climbing Memphis Center
03:09PM 36.4058 -87.2533 164° South 107 123 9,500  Level Memphis Center
03:10PM 36.3708 -87.2419 165° South 107 123 9,500  Level Memphis Center
03:12PM 36.3394 -87.2314 165° South 110 127 9,500 97 Level Memphis Center
03:13PM 36.3086 -87.2206 164° South 111 128 9,700  Climbing Memphis Center
03:14PM 36.2756 -87.2114 167° South 116 133 9,500 -97 Descending Memphis Center
03:15PM 36.2433 -87.2119 181° South 116 133 9,500  Level Memphis Center
03:16PM 36.2128 -87.2147 184° South 115 132 9,500  Level Memphis Center
03:17PM 36.1831 -87.2111 174° South 111 128 9,500 48 Level Memphis Center
03:18PM 36.1519 -87.2097 178° South 111 128 9,600  Climbing Memphis Center
03:19PM 36.1169 -87.2047 173° South 110 127 9,500 -48 Descending Memphis Center
03:20PM 36.0858 -87.2011 175° South 110 127 9,500  Level Memphis Center
03:21PM 36.0553 -87.1969 174° South 110 127 9,500 48 Level Memphis Center
03:22PM 36.0250 -87.1917 172° South 110 127 9,600  Climbing Memphis Center
03:23PM 35.9958 -87.1839 168° South 109 125 9,500 -48 Descending Memphis Center
03:24PM 35.9686 -87.1572 142° Southeast 116 133 9,500 -145 Level Memphis Center
03:25PM 35.9339 -87.1261 144° Southeast 127 146 9,200 -290 Descending Memphis Center
03:26PM 35.9069 -87.0942 136° Southeast 131 151 8,900 -145 Descending Memphis Center
03:27PM 35.8806 -87.0714 145° Southeast 124 143 8,900 48 Level Memphis Center
03:28PM 35.8525 -87.0706 179° South 103 119 9,000 194 Climbing Memphis Center
03:29PM 35.8331 -87.0361 125° Southeast 119 137 9,300 194 Climbing Memphis Center
03:30PM 35.8128 -87.0014 126° Southeast 121 139 9,400 145 Climbing Memphis Center
03:31PM 35.7886 -86.9800 144° Southeast 113 130 9,600 97 Climbing Memphis Center
03:32PM 35.7569 -86.9664 161° South 106 122 9,600 -48 Level Memphis Center
03:33PM 35.7281 -86.9581 167° South 106 122 9,500 -48 Descending Memphis Center
03:34PM 35.6983 -86.9508 169° South 106 122 9,500  Level Memphis Center
03:35PM 35.6708 -86.9506 180° South 105 121 9,500 -48 Level Memphis Center
03:36PM 35.6458 -86.9575 193° South 94 108 9,400 -48 Descending Memphis Center
03:37PM 35.6228 -86.9703 204° Southwest 93 107 9,400  Level Memphis Center
03:38PM 35.6008 -86.9842 207° Southwest 92 106 9,400  Level Memphis Center
03:39PM 35.5700 -86.9908 190° South 92 106 9,400 48 Level Memphis Center
03:40PM 35.5419 -86.9839 169° South 96 110 9,500 48 Climbing Memphis Center
03:42PM 35.5117 -86.9747 166° South 105 121 9,500  Level Memphis Center
03:43PM 35.4844 -86.9750 180° South 104 120 9,500  Level Memphis Center
03:44PM 35.4575 -86.9722 175° South 97 112 9,500  Level Memphis Center
03:45PM 35.4325 -86.9808 196° South 96 110 9,500  Level Memphis Center
03:46PM 35.4050 -86.9756 171° South 96 110 9,500  Level Memphis Center
03:47PM 35.3747 -86.9744 178° South 96 110 9,500 -48 Level Memphis Center
03:48PM 35.3467 -86.9731 178° South 97 112 9,400 -97 Descending Memphis Center
03:49PM 35.3189 -86.9694 174° South 98 113 9,300 -48 Descending Memphis Center
03:50PM 35.2983 -86.9867 214° Southwest 94 108 9,300  Level Memphis Center
03:51PM 35.2747 -86.9894 185° South 90 104 9,300 -97 Level Memphis Center
03:52PM 35.2453 -86.9619 143° Southeast 104 120 9,100 -48 Descending Memphis Center
03:53PM 35.2211 -86.9375 140° Southeast 109 125 9,200 -49 Climbing Memphis Center
03:54PM 35.1975 -86.9136 140° Southeast 124 143 9,000  Descending Memphis Center
03:55PM 35.1711 -86.8956 151° Southeast 116 133 9,200 145 Climbing Memphis Center
03:56PM 35.1442 -86.8797 154° Southeast 110 127 9,300 145 Climbing Memphis Center
03:57PM 35.1178 -86.8633 153° Southeast 107 123 9,500 97 Climbing Memphis Center
03:58PM 35.0833 -86.8447 156° South 109 125 9,500 48 Level Memphis Center
03:59PM 35.0553 -86.8253 150° Southeast 111 128 9,600  Climbing Memphis Center
04:00PM 35.0256 -86.8131 161° South 112 129 9,500 -48 Descending Memphis Center
04:01PM 34.9947 -86.8106 176° South 113 130 9,500 -97 Level Memphis Center
04:02PM 34.9661 -86.8156 188° South 108 124 9,300 -435 Descending Memphis Center
04:03PM 34.9350 -86.8208 188° South 109 125 8,600 -726 Descending Memphis Center
04:04PM 34.9036 -86.8083 162° South 129 148 7,800 -629 Descending Memphis Center
04:05PM 34.8658 -86.7736 143° Southeast 139 160 7,300 -677 Descending Memphis Center
04:06PM 34.8336 -86.7750 182° South 138 159 6,400 -823 Descending Memphis Center
04:07PM 34.7986 -86.7850 193° South 132 152 5,600 -823 Descending Memphis Center
04:08PM 34.7606 -86.7919 189° South 132 152 4,700 -339 Descending Memphis Center
04:09PM 34.7267 -86.7850 170° South 130 150 4,900 293 Climbing Memphis Center
04:10PM 34.6989 -86.7753 164° South 117 135 5,300 341 Climbing Memphis Center
04:11PM 34.6664 -86.7686 170° South 106 122 5,600 97 Climbing Memphis Center
04:12PM 34.6342 -86.7731 186° South 109 125 5,500 -194 Descending Memphis Center
04:14PM 34.6072 -86.7931 211° Southwest 112 129 5,200 -581 Descending Memphis Center
04:15PM 34.5769 -86.8142 210° Southwest 115 132 4,300 -871 Descending Memphis Center
04:16PM 34.5353 -86.8217 188° South 135 155 3,400 -435 Descending Memphis Center
04:17PM 34.4964 -86.8200 178° South 144 166 3,400 49 Level Memphis Center
04:18PM 34.4711 -86.7967 143° Southeast 132 152 3,500 98 Climbing Memphis Center
04:19PM 34.4456 -86.7575 128° Southeast 129 148 3,600 97 Climbing Memphis Center
04:20PM 34.4164 -86.7433 158° South 118 136 3,700 194 Climbing Memphis Center
04:21PM 34.3858 -86.7331 164° South 117 135 4,000 242 Climbing Memphis Center
04:22PM 34.3575 -86.7308 176° South 110 127 4,200 145 Climbing Memphis Center
04:23PM 34.3283 -86.7261 172° South 108 124 4,300 194 Climbing Memphis Center
04:24PM 34.2989 -86.7228 175° South 108 124 4,600 194 Climbing Memphis Center
04:25PM 34.2681 -86.7161 170° South 108 124 4,700 390 Climbing Memphis Center
04:26PM 34.2336 -86.7103 172° South 108 124 5,400 634 Climbing Memphis Center
04:27PM 34.2056 -86.6989 161° South 108 124 6,000 387 Climbing Memphis Center
04:28PM 34.1822 -86.6725 137° Southeast 114 131 6,200 250 Climbing Memphis Center
04:30PM 34.1322 -86.6286 144° Southeast 115 132 6,700 195 Climbing Atlanta Center
04:30PM 34.1325 -86.6236 86° East 116 133 6,600 300 Descending Atlanta Center
04:31PM 34.1097 -86.6081 151° Southeast 112 129 7,000 400 Climbing Atlanta Center
04:31PM 34.1078 -86.6003 107° East 116 133 7,000 234 Level Atlanta Center
04:32PM 34.0811 -86.5819 150° Southeast 116 133 7,300 250 Climbing Atlanta Center
04:33PM 34.0542 -86.5661 154° Southeast 116 133 7,500 216 Climbing Atlanta Center
04:34PM 34.0272 -86.5578 166° South 102 117 7,700 268 Climbing Atlanta Center
04:35PM 33.9961 -86.5469 164° South 104 120 8,000 298 Climbing Atlanta Center
04:36PM 33.9694 -86.5361 161° South 105 121 8,300 298 Climbing Atlanta Center
04:37PM 33.9425 -86.5278 166° South 103 119 8,600 328 Climbing Atlanta Center
04:38PM 33.9114 -86.5169 164° South 103 119 9,000 298 Climbing Atlanta Center
04:39PM 33.8864 -86.5111 169° South 104 120 9,200 261 Climbing Atlanta Center
04:40PM 33.8572 -86.5053 171° South 102 117 9,500 141 Climbing Atlanta Center
04:41PM 33.8197 -86.4992 172° South 120 138 9,500  Level Atlanta Center
04:42PM 33.7886 -86.4958 175° South 115 132 9,500 -50 Level Atlanta Center
04:43PM 33.7572 -86.5025 190° South 113 130 9,400  Descending Atlanta Center
04:44PM 33.7239 -86.4964 171° South 124 143 9,500 50 Climbing Atlanta Center
04:45PM 33.6947 -86.4906 171° South 116 133 9,500  Level Atlanta Center
04:46PM 33.6681 -86.4625 139° Southeast 133 153 9,500  Level Atlanta Center
04:47PM 33.6392 -86.4442 152° Southeast 118 136 9,500  Level Atlanta Center
04:48PM 33.6081 -86.4358 167° South 113 130 9,500 52 Level Atlanta Center
04:49PM 33.5789 -86.4325 175° South 113 130 9,600 104 Climbing Atlanta Center
04:50PM 33.5456 -86.4317 179° South 119 137 9,700  Climbing Atlanta Center
04:51PM 33.5144 -86.4283 175° South 120 138 9,600 -99 Descending Atlanta Center
04:52PM 33.4792 -86.4197 168° South 127 146 9,500 -50 Descending Atlanta Center
04:53PM 33.4458 -86.4089 165° South 130 150 9,500  Level Atlanta Center
04:54PM 33.4083 -86.4028 172° South 124 143 9,500  Level Atlanta Center
04:55PM 33.3731 -86.3944 169° South 126 145 9,500  Level Atlanta Center
04:56PM 33.3417 -86.3936 179° South 125 144 9,500 -52 Level Atlanta Center
04:57PM 33.3083 -86.3928 179° South 121 139 9,400 -17 Descending Atlanta Center
05:02PM 33.1464 -86.3511 171° South 115 132 9,400 -45 Level Atlanta Center
05:06PM 33.0286 -86.4000 171° South 120 138 9,000 -12 Descending Atlanta Center
05:10PM 32.9231 -86.4592 162° South 105 121 9,300 59 Climbing Atlanta Center
05:14PM 32.7872 -86.4750 162° South 126 145 9,500 12 Climbing Atlanta Center
05:18PM 32.6547 -86.5133 166° South 128 147 9,400 -12 Descending Atlanta Center
05:22PM 32.5244 -86.5542 162° South 127 146 9,400 13 Level Atlanta Center
05:26PM 32.3953 -86.5503 163° South 129 148 9,500 Climbing Atlanta Center
05:34PM 32.1047 -86.4661 162° South 142 163 9,500 -20 Level Atlanta Center
05:35PM 32.1395 -86.4536 162° South  Level Estimated
05:36PM 32.1100 -86.4425 162° South  Level Estimated
05:36PM 32.0361 -86.4167 149° Southeast 137 158 9,300  Level Jacksonville Center
05:36PM 32.0153 -86.4108 167° South 132 152 9,400 124 Climbing Jacksonville Center
05:37PM 32.0805 -86.4314 162° South  Level Estimated
05:37PM 31.9781 -86.3997 166° South 131 151 9,500  Level Jacksonville Center
05:38PM 32.0510 -86.4203 162° South  Level Estimated
05:38PM 31.9431 -86.3861 162° South 136 157 9,500  Level Jacksonville Center
05:39PM 32.0216 -86.4092 162° South  Level Estimated
05:39PM 31.9100 -86.3750 164° South 137 158 9,400  Level Jacksonville Center
05:40PM 31.8750 -86.3542 153° Southeast 135 155 9,500 50 Climbing Jacksonville Center
05:41PM 31.8400 -86.3333 153° Southeast 134 154 9,500  Level Jacksonville Center
05:42PM 31.8092 -86.3150 153° Southeast 138 159 9,500  Level Jacksonville Center
05:43PM 31.7744 -86.2869 146° Southeast 144 166 9,500 -50 Level Jacksonville Center
05:44PM 31.7397 -86.2661 153° Southeast 140 161 9,400  Descending Jacksonville Center
05:45PM 31.7047 -86.2428 150° Southeast 138 159 9,500 -50 Climbing Jacksonville Center
05:46PM 31.6761 -86.2175 143° Southeast 136 157 9,300 -98 Descending Jacksonville Center
05:47PM 31.6433 -86.1967 152° Southeast 132 152 9,300 104 Level Jacksonville Center
05:48PM 31.6125 -86.1811 157° South 129 148 9,500 110 Climbing Jacksonville Center
05:49PM 31.5794 -86.1653 158° South 131 151 9,500  Level Jacksonville Center
05:50PM 31.5486 -86.1494 156° South 133 153 9,500  Level Jacksonville Center
05:51PM 31.5114 -86.1311 157° South 135 155 9,500  Level Jacksonville Center
05:52PM 31.4783 -86.1128 155° Southeast 135 155 9,500  Level Jacksonville Center
05:53PM 31.4414 -86.0922 155° Southeast 136 157 9,500  Level Jacksonville Center
05:54PM 31.4106 -86.0717 150° Southeast 135 155 9,500 -50 Level Jacksonville Center
05:55PM 31.3778 -86.0511 152° Southeast 135 155 9,400 -50 Descending Jacksonville Center
05:56PM 31.3428 -86.0303 153° Southeast 140 161 9,400 -50 Level Jacksonville Center
05:57PM 31.3075 -86.0169 162° South 134 154 9,300 50 Descending Jacksonville Center
05:58PM 31.2722 -86.0133 175° South 121 139 9,500 197 Climbing Jacksonville Center
05:59PM 31.2408 -86.0125 179° South 117 135 9,700 94 Climbing Jacksonville Center
06:00PM 31.2033 -86.0086 175° South 121 139 9,700 94 Level Jacksonville Center
06:01PM 31.1658 -86.0050 175° South 128 147 9,900 94 Climbing Jacksonville Center
06:03PM 31.1242 -85.9989 173° South 131 151 9,900 -94 Level Jacksonville Center
06:04PM 31.0867 -85.9953 175° South 142 163 9,700 -189 Descending Jacksonville Center
06:05PM 31.0433 -85.9842 168° South 141 162 9,500 -338 Descending Jacksonville Center
06:06PM 30.9914 -85.9703 167° South 145 167 8,800 -588 Descending Jacksonville Center
06:07PM 30.9561 -85.9594 165° South 140 161 8,000 -650 Descending Jacksonville Center
06:08PM 30.9231 -85.9511 168° South 134 154 7,500 -650 Descending Jacksonville Center
06:09PM 30.8897 -85.9428 168° South 129 148 6,700 -750 Descending Jacksonville Center
06:10PM 30.8564 -85.9367 171° South 124 143 6,000 -600 Descending Jacksonville Center
06:11PM 30.8233 -85.9286 168° South 124 143 5,500 -600 Descending Jacksonville Center
06:12PM 30.7922 -85.9225 170° South 124 143 4,800 -650 Descending Jacksonville Center
06:13PM 30.7608 -85.9167 171° South 124 143 4,200 -600 Descending Jacksonville Center
06:14PM 30.7278 -85.9086 168° South 124 143 3,600 -350 Descending Jacksonville Center
06:15PM 30.6944 -85.9025 171° South 124 143 3,500 -100 Descending Jacksonville Center

Login

Don't have an account? Register now (free) for customized features, flight alerts, and more!